Location: San Antonio
(29.4240°N, 98.4930°W)
Time: 18:26:15
(UTC-05:00)

ZACube-1 - Pass Details

Date: 03 August 2024
Orbit: 561 x 628 km, 97.7° (Epoch: 15 September)

Event Time Altitude Azimuth Distance (km) Brightness Sun altitude
Rises 03:53:14 0° 21° (NNE) 2,894 ? -33.3°
Reaches altitude 10° 03:55:32 10° 29° (NNE) 1,994 ? -33.0°
Enters shadow 03:57:57 28° 52° (NE) 1,180 ? -32.6°
